sat.trackr.live / text

‹ back to catalog

STARLINK-30918

NORAD 58365 · 2023-177Q

PAYLOAD ACTIVE UNKNOWN

§ Identity

Operator
Country
US
Launch date
2023-11-18
Launch site
AFETR
Launch vehicle
Mass (kg)
RCS (m²)

Purposes: comms

External: N2YO · Heavens-Above · Gunter

§ Orbital elements

Epoch: 2026-05-24T20:24:05.696352Z

Period
94.27 min
Inclination
43.0026°
Eccentricity
0.0001807
Mean motion
15.27572478 rev/d
Perigee alt
481.8 km
Apogee alt
484.3 km
Semi-major
6,861.2 km
B*
2.2832e-5
RAAN
280.6234°
Arg perigee
265.3373°
Mean anomaly
94.7272°
Rev number
13,986

§ Raw data

STARLINK-309181 58365U 23177Q   26144.85006593  .00000366  00000+0  22832-4 0  99952 58365  43.0026 280.6234 0001807 265.3373  94.7272 15.27572478139860

JSON: /api/v1/satellites/58365 · /tle

For live sub-satellite position, see the globe view (requires WebGL).

§ Visibility from observer

Set your observer location to see the next 7 days of passes ≥ 10°. The values pass through the URL so the page stays shareable.

No JS? Fill the form by hand. The geolocation button needs JavaScript.